| time (UTC) | temp F | wind direction | speed knots | gust knots | rain 1hr in | rain 24hr in | rain mn in | humidity % | barometer mb |
| 20260903174130 | 69 | 208 | 0.0 | 2.6 | 0.00 | 0.07 | 0.07 | 88 | 1012.2 |
| 20260903171911 | 68 | 186 | 0.0 | 1.7 | 0.00 | 0.07 | 0.07 | 89 | 1012.4 |
| 20260903170408 | 68 | 197 | 0.0 | 0.0 | 0.00 | 0.07 | 0.07 | 89 | 1012.6 |
| 20260903164908 | 67 | 185 | 0.0 | 0.0 | 0.00 | 0.07 | 0.07 | 90 | 1012.6 |
| 20260903163408 | 66 | 202 | 0.0 | 0.0 | 0.00 | 0.07 | 0.07 | 92 | 1012.8 |
| 20260903161907 | 65 | 196 | 0.0 | 0.0 | 0.00 | 0.07 | 0.07 | 93 | 1012.8 |
| 20260903160407 | 65 | 197 | 0.0 | 0.0 | 0.00 | 0.07 | 0.07 | 92 | 1013.0 |
| 20260903154907 | 64 | 200 | 0.0 | 0.0 | 0.00 | 0.07 | 0.07 | 93 | 1013.1 |
| 20260903153407 | 64 | 200 | 0.0 | 0.0 | 0.00 | 0.07 | 0.07 | 94 | 1013.4 |
| 20260903151905 | 63 | 199 | 0.0 | 0.0 | 0.00 | 0.07 | 0.07 | 95 | 1013.7 |
| 20260903150405 | 63 | 199 | 0.0 | 1.7 | 0.00 | 0.07 | 0.07 | 94 | 1013.5 |
| 20260903144904 | 63 | 198 | 0.0 | 3.5 | 0.00 | 0.07 | 0.07 | 95 | 1013.8 |
| 20260903143403 | 62 | 196 | 0.0 | 0.0 | 0.00 | 0.07 | 0.07 | 97 | 1014.0 |
| 20260903141904 | 62 | 196 | 0.0 | 0.0 | 0.00 | 0.07 | 0.07 | 97 | 1014.0 |
| 20260903140408 | 62 | 196 | 0.0 | 0.0 | 0.00 | 0.07 | 0.07 | 96 | 1014.0 |
| 20260903134901 | 62 | 196 | 0.0 | 0.0 | 0.00 | 0.07 | 0.07 | 96 | 1014.0 |
| 20260903133359 | 61 | 196 | 0.0 | 0.0 | 0.00 | 0.07 | 0.07 | 96 | 1014.0 |
| 20260903131858 | 61 | 196 | 0.0 | 0.0 | 0.00 | 0.07 | 0.07 | 97 | 1013.9 |
| 20260903130359 | 61 | 196 | 0.0 | 0.9 | 0.00 | 0.07 | 0.07 | 96 | 1013.8 |
| 20260903124858 | 61 | 196 | 0.0 | 0.9 | 0.00 | 0.07 | 0.07 | 96 | 1013.9 |
| 20260903123358 | 60 | 195 | 0.0 | 1.7 | 0.00 | 0.07 | 0.07 | 97 | 1014.0 |
| 20260903121858 | 60 | 194 | 0.0 | 1.7 | 0.00 | 0.07 | 0.07 | 97 | 1014.1 |
| 20260903120359 | 60 | 199 | 0.0 | 2.6 | 0.00 | 0.07 | 0.07 | 97 | 1014.0 |
| 20260903114858 | 60 | 199 | 0.0 | 1.7 | 0.00 | 0.07 | 0.07 | 97 | 1014.2 |
| 20260903113358 | 60 | 199 | 0.0 | 0.0 | 0.00 | 0.07 | 0.07 | 97 | 1014.2 |
| 20260903111858 | 60 | 199 | 0.0 | 0.0 | 0.00 | 0.07 | 0.07 | 97 | 1014.2 |
| 20260903110356 | 60 | 199 | 0.0 | 1.7 | 0.00 | 0.07 | 0.07 | 97 | 1014.1 |
| 20260903104853 | 60 | 200 | 0.0 | 0.9 | 0.00 | 0.07 | 0.07 | 97 | 1014.3 |
| 20260903103353 | 59 | 200 | 0.0 | 1.7 | 0.00 | 0.07 | 0.07 | 97 | 1014.0 |
| 20260903101851 | 59 | 199 | 0.0 | 1.7 | 0.00 | 0.07 | 0.07 | 97 | 1014.0 |
| 20260903100350 | 59 | 199 | 0.0 | 3.5 | 0.00 | 0.07 | 0.07 | 97 | 1013.9 |
| 20260903094847 | 59 | 198 | 0.0 | 2.6 | 0.00 | 0.07 | 0.07 | 97 | 1013.8 |
| 20260903093347 | 59 | 204 | 0.0 | 0.9 | 0.00 | 0.07 | 0.07 | 97 | 1014.0 |
| 20260903093250 | 59 | 203 | 0.0 | 0.0 | 0.00 | 0.07 | 0.07 | 97 | 1014.0 |
| 20260903090343 | 59 | 187 | 0.0 | 0.0 | 0.00 | 0.07 | 0.07 | 97 | 1014.1 |
| 20260903085530 | 59 | 188 | 0.0 | 0.0 | 0.00 | 0.07 | 0.07 | 96 | 1014.3 |
| 20260903083343 | 59 | 188 | 0.0 | 0.0 | 0.00 | 0.07 | 0.07 | 96 | 1014.4 |
| 20260903081837 | 59 | 187 | 0.0 | 0.0 | 0.00 | 0.07 | 0.07 | 96 | 1014.5 |
| 20260903080337 | 59 | 187 | 0.0 | 0.0 | 0.00 | 0.07 | 0.07 | 96 | 1014.6 |
| 20260903074834 | 59 | 187 | 0.0 | 0.0 | 0.00 | 0.07 | 0.07 | 96 | 1014.6 |
| 20260903073334 | 59 | 177 | 0.0 | 0.0 | 0.00 | 0.07 | 0.07 | 96 | 1014.7 |
| 20260903073233 | 59 | 199 | 0.0 | 0.0 | 0.00 | 0.07 | 0.07 | 95 | 1015.1 |
| 20260903070335 | 59 | 196 | 0.0 | 0.0 | 0.00 | 0.07 | 0.07 | 95 | 1015.1 |
| 20260903064832 | 60 | 200 | 0.0 | 0.0 | 0.01 | 0.07 | 0.07 | 95 | 1014.7 |
| 20260903064028 | 60 | 186 | 0.0 | 0.0 | 0.07 | 0.07 | 0.07 | 95 | 1015.0 |
| 20260903061832 | 60 | 178 | 0.0 | 0.0 | 0.07 | 0.07 | 0.07 | 94 | 1015.2 |
| 20260903060332 | 61 | 154 | 0.0 | 0.0 | 0.07 | 0.07 | 0.07 | 92 | 1015.3 |
| 20260903055536 | 62 | 154 | 0.0 | 0.0 | 0.06 | 0.06 | 0.06 | 88 | 1015.6 |
| 20260903053333 | 63 | 198 | 0.0 | 0.0 | 0.00 | 0.00 | 0.00 | 83 | 1015.7 |
| 20260903052528 | 63 | 155 | 0.0 | 0.0 | 0.00 | 0.00 | 0.00 | 83 | 1015.6 |
| 20260903050332 | 63 | 142 | 0.0 | 0.0 | 0.00 | 0.00 | 0.00 | 85 | 1015.8 |
| 20260903044831 | 63 | 157 | 0.0 | 0.0 | 0.00 | 0.00 | 0.00 | 85 | 1015.8 |
| 20260903043330 | 63 | 183 | 0.0 | 1.7 | 0.00 | 0.00 | 0.00 | 86 | 1015.9 |
| 20260903041830 | 63 | 153 | 0.0 | 5.2 | 0.00 | 0.00 | 0.00 | 86 | 1016.0 |
| 20260903040327 | 63 | 192 | 0.9 | 5.2 | 0.00 | 0.00 | 0.00 | 87 | 1015.9 |
| 20260903035528 | 63 | 195 | 0.0 | 0.0 | 0.00 | 0.00 | 0.00 | 87 | 1015.8 |
| 20260903033328 | 64 | 190 | 0.0 | 0.0 | 0.00 | 0.00 | 0.00 | 85 | 1016.1 |
| 20260903031828 | 63 | 211 | 0.0 | 0.0 | 0.00 | 0.00 | 0.00 | 86 | 1016.7 |
| 20260903030328 | 63 | 196 | 0.0 | 0.0 | 0.00 | 0.01 | 0.00 | 87 | 1016.6 |
| 20260903024823 | 63 | 163 | 0.0 | 0.0 | 0.00 | 0.01 | 0.00 | 88 | 1017.1 |
| 20260903023324 | 64 | 188 | 0.0 | 0.0 | 0.00 | 0.01 | 0.00 | 85 | 1017.3 |
| 20260903021822 | 64 | 199 | 0.0 | 0.0 | 0.00 | 0.01 | 0.00 | 84 | 1017.0 |
| 20260903020322 | 64 | 199 | 0.0 | 0.0 | 0.00 | 0.01 | 0.00 | 85 | 1017.2 |
| 20260903014824 | 64 | 221 | 0.0 | 0.0 | 0.00 | 0.01 | 0.00 | 85 | 1017.4 |
| 20260903013322 | 64 | 189 | 0.0 | 0.0 | 0.00 | 0.01 | 0.00 | 86 | 1017.8 |
| 20260903012519 | 64 | 192 | 0.0 | 1.7 | 0.00 | 0.01 | 0.00 | 87 | 1017.7 |
| 20260903011724 | 64 | 191 | 0.0 | 4.3 | 0.00 | 0.02 | 0.00 | 88 | 1017.5 |
| 20260903004822 | 64 | 196 | 0.0 | 7.0 | 0.00 | 0.03 | 0.00 | 90 | 1017.5 |
| 20260903003321 | 64 | 196 | 0.0 | 5.2 | 0.00 | 0.03 | 0.00 | 92 | 1017.5 |
| 20260903001818 | 64 | 204 | 0.0 | 2.6 | 0.00 | 0.04 | 0.00 | 92 | 1017.4 |
| 20260903000318 | 64 | 188 | 0.0 | 2.6 | 0.00 | 0.04 | 0.00 | 91 | 1017.3 |
| 20260902235519 | 64 | 194 | 0.9 | 5.2 | 0.00 | 0.04 | 0.00 | 91 | 1017.1 |
| 20260902233315 | 64 | 219 | 0.0 | 4.3 | 0.00 | 0.04 | 0.00 | 91 | 1017.2 |
| 20260902231815 | 64 | 219 | 0.0 | 5.2 | 0.00 | 0.04 | 0.00 | 92 | 1017.3 |
| 20260902230317 | 64 | 196 | 0.9 | 6.1 | 0.00 | 0.04 | 0.00 | 92 | 1017.7 |
| 20260902224815 | 64 | 190 | 0.0 | 4.3 | 0.00 | 0.04 | 0.00 | 93 | 1018.5 |
| 20260902223315 | 64 | 190 | 0.0 | 0.0 | 0.00 | 0.04 | 0.00 | 92 | 1018.9 |
| 20260902221813 | 64 | 190 | 0.0 | 0.0 | 0.00 | 0.04 | 0.00 | 92 | 1019.2 |
| 20260902220309 | 65 | 190 | 0.0 | 2.6 | 0.00 | 0.04 | 0.00 | 92 | 1019.2 |
| 20260902214810 | 65 | 190 | 0.9 | 3.5 | 0.00 | 0.04 | 0.00 | 90 | 1019.4 |
| 20260902213306 | 65 | 187 | 0.0 | 3.5 | 0.00 | 0.04 | 0.00 | 90 | 1019.2 |
| 20260902212459 | 65 | 190 | 0.0 | 3.5 | 0.00 | 0.04 | 0.00 | 90 | 1019.1 |
| 20260902211007 | 66 | 188 | 0.0 | 4.3 | 0.00 | 0.04 | 0.00 | 87 | 1019.2 |
| 20260902204803 | 66 | 190 | 0.9 | 4.3 | 0.00 | 0.04 | 0.00 | 86 | 1019.2 |
| 20260902203302 | 66 | 198 | 0.0 | 5.2 | 0.00 | 0.04 | 0.00 | 85 | 1019.5 |
| 20260902203204 | 66 | 196 | 0.0 | 7.0 | 0.00 | 0.04 | 0.00 | 86 | 1019.3 |
| 20260902200301 | 65 | 188 | 0.0 | 3.5 | 0.00 | 0.04 | 0.00 | 86 | 1019.4 |
| 20260902194757 | 66 | 197 | 0.0 | 8.7 | 0.00 | 0.04 | 0.00 | 86 | 1019.7 |
| 20260902193949 | 65 | 197 | 0.0 | 6.1 | 0.00 | 0.04 | 0.00 | 86 | 1019.7 |
| 20260902191752 | 65 | 191 | 0.0 | 4.3 | 0.00 | 0.04 | 0.00 | 86 | 1019.8 |
| 20260902190252 | 65 | 210 | 0.0 | 7.0 | 0.00 | 0.05 | 0.00 | 85 | 1019.9 |
| 20260902184752 | 66 | 200 | 0.9 | 7.8 | 0.00 | 0.05 | 0.00 | 84 | 1019.9 |
| 20260902183253 | 66 | 192 | 0.9 | 6.1 | 0.00 | 0.05 | 0.00 | 85 | 1020.1 |
| 20260902181746 | 66 | 180 | 0.9 | 7.8 | 0.00 | 0.05 | 0.00 | 85 | 1020.4 |
| 20260902180248 | 66 | 218 | 1.7 | 10.4 | 0.00 | 0.05 | 0.00 | 84 | 1020.4 |
| 20260902175436 | 66 | 201 | 0.9 | 8.7 | 0.00 | 0.05 | 0.00 | 83 | 1020.2 |